E22ZMG-4 Weather Reports


time (UTC)temp
C
wind
direction
speed
KPH
gust
KPH
rain 1hr
cm
rain 24hr
cm
rain mn
cm
humidity
%
barometer
mb
20260504081818 27 0 0.0 0.0 0.00 0.00 0.00 37 973.0
20260504080754 27 0 0.0 0.0 0.00 0.00 0.00 38 973.0
20260504045006 27 0 0.0 0.0 0.00 0.00 0.00 35 976.0
20260504043942 25 0 0.0 0.0 0.00 0.00 0.00 37 977.0
20260504042917 25 0 0.0 0.0 0.00 0.00 0.00 37 977.0
20260504041852 25 0 0.0 0.0 0.00 0.00 0.00 37 977.0
20260504040828 25 0 0.0 0.0 0.00 0.00 0.00 37 977.0
20260504035803 26 0 0.0 0.0 0.00 0.00 0.00 37 977.0
20260504034739 26 0 0.0 0.0 0.00 0.00 0.00 38 977.0
20260504033715 26 0 0.0 0.0 0.00 0.00 0.00 39 977.0
20260504032650 26 0 0.0 0.0 0.00 0.00 0.00 38 977.0
20260504031625 26 0 0.0 0.0 0.00 0.00 0.00 37 977.0
20260504030601 26 0 0.0 0.0 0.00 0.00 0.00 37 978.0
20260504025536 26 0 0.0 0.0 0.00 0.00 0.00 37 978.0
20260504024512 27 0 0.0 0.0 0.00 0.00 0.00 38 978.0
20260504023447 27 0 0.0 0.0 0.00 0.00 0.00 39 978.0
20260504022422 27 0 0.0 0.0 0.00 0.00 0.00 38 978.0
20260504021358 28 0 0.0 0.0 0.00 0.00 0.00 41 978.0
20260504020333 28 0 0.0 0.0 0.00 0.00 0.00 45 978.0
20260504015309 28 0 0.0 0.0 0.00 0.00 0.00 46 978.0
20260504014245 28 0 0.0 0.0 0.00 0.00 0.00 48 978.0
20260504013220 28 0 0.0 0.0 0.00 0.00 0.00 40 978.0
20260504012155 28 0 0.0 0.0 0.00 0.00 0.00 40 978.0
20260504011130 28 0 0.0 0.0 0.00 0.00 0.00 40 977.0
20260504010101 30 0 0.0 0.0 0.00 0.00 0.00 43 977.0
20260504005037 31 0 0.0 0.0 0.00 0.00 0.00 46 977.0
20260504004012 31 0 0.0 0.0 0.00 0.00 0.00 47 977.0
20260504002948 31 0 0.0 0.0 0.00 0.00 0.00 47 977.0
20260504001923 30 0 0.0 0.0 0.00 0.00 0.00 47 977.0
20260504000859 30 0 0.0 0.0 0.00 0.00 0.00 47 977.0
20260504000617 30 0 0.0 0.0 0.00 0.00 0.00 47 977.0
20260503235553 30 0 0.0 0.0 0.00 0.00 0.00 47 977.0
20260503234529 30 0 0.0 0.0 0.00 0.00 0.00 47 977.0
20260503233504 30 0 0.0 0.0 0.00 0.00 0.00 47 976.0
20260503232439 30 0 0.0 0.0 0.00 0.00 0.00 47 976.0
20260503231414 30 0 0.0 0.0 0.00 0.00 0.00 46 976.0
20260503230350 30 0 0.0 0.0 0.00 0.00 0.00 46 976.0
20260503225325 30 0 0.0 0.0 0.00 0.00 0.00 46 976.0
20260503224301 30 0 0.0 0.0 0.00 0.00 0.00 46 976.0
20260503223236 30 0 0.0 0.0 0.00 0.00 0.00 46 976.0
20260503222211 30 0 0.0 0.0 0.00 0.00 0.00 46 976.0
20260503221146 30 0 0.0 0.0 0.00 0.00 0.00 46 976.0
20260503220120 31 0 0.0 0.0 0.00 0.00 0.00 46 976.0
20260503215055 31 0 0.0 0.0 0.00 0.00 0.00 45 975.0
20260503214029 31 0 0.0 0.0 0.00 0.00 0.00 45 975.0
20260503213003 31 0 0.0 0.0 0.00 0.00 0.00 45 975.0
20260503211939 31 0 0.0 0.0 0.00 0.00 0.00 45 975.0
20260503210914 31 0 0.0 0.0 0.00 0.00 0.00 45 975.0
20260503205850 31 0 0.0 0.0 0.00 0.00 0.00 44 975.0
20260503204824 31 0 0.0 0.0 0.00 0.00 0.00 44 975.0
20260503203759 31 0 0.0 0.0 0.00 0.00 0.00 44 975.0
20260503202733 31 0 0.0 0.0 0.00 0.00 0.00 44 975.0
20260503201708 31 0 0.0 0.0 0.00 0.00 0.00 44 975.0
20260503200644 31 0 0.0 0.0 0.00 0.00 0.00 43 975.0
20260503195618 31 0 0.0 0.0 0.00 0.00 0.00 43 975.0
20260503194553 31 0 0.0 0.0 0.00 0.00 0.00 43 975.0
20260503193528 31 0 0.0 0.0 0.00 0.00 0.00 43 975.0
20260503192504 31 0 0.0 0.0 0.00 0.00 0.00 43 975.0
20260503191439 31 0 0.0 0.0 0.00 0.00 0.00 42 975.0
20260503190414 31 0 0.0 0.0 0.00 0.00 0.00 42 975.0
20260503185349 31 0 0.0 0.0 0.00 0.00 0.00 42 975.0
20260503184325 31 0 0.0 0.0 0.00 0.00 0.00 42 975.0
20260503183259 31 0 0.0 0.0 0.00 0.00 0.00 42 975.0
20260503182234 31 0 0.0 0.0 0.00 0.00 0.00 41 975.0
20260503181210 31 0 0.0 0.0 0.00 0.00 0.00 41 975.0
20260503180144 31 0 0.0 0.0 0.00 0.00 0.00 41 975.0
20260503175120 31 0 0.0 0.0 0.00 0.00 0.00 40 975.0
20260503174055 31 0 0.0 0.0 0.00 0.00 0.00 40 975.0
20260503173029 31 0 0.0 0.0 0.00 0.00 0.00 40 975.0
20260503172005 31 0 0.0 0.0 0.00 0.00 0.00 40 975.0
20260503170939 31 0 0.0 0.0 0.00 0.00 0.00 40 975.0
20260503150438 31 0 0.0 0.0 0.00 0.00 0.00 37 975.0
20260503140208 31 0 0.0 0.0 0.00 0.00 0.00 35 974.0
20260503131003 30 0 0.0 0.0 0.00 0.00 0.00 34 973.0
20260503110504 31 0 0.0 0.0 0.00 0.00 0.00 34 971.0
20260503100236 25 0 0.0 0.0 0.00 0.00 0.00 37 971.0